Location: Newark
(36.2667°N, 50.0000°E)
Time: 22:33:33
(UTC+00:00)

Hubble Space Telescope - Pass Details

Date: 02 October 2020
Orbit: 536 x 540 km, 28.5° (Epoch: 26 October)

Event Time Altitude Azimuth Distance (km) Brightness Sun altitude
Exits shadow 01:54:08 10° 242° (WSW) 1,807 2.9 -9.3°
Reaches altitude 10° 01:54:14 10° 241° (WSW) 1,778 2.9 -9.3°
Maximum altitude 01:57:16 20° 193° (SSW) 1,268 2.5 -8.7°
Drops below altitude 10° 02:00:17 10° 146° (SE) 1,774 3.9 -8.0°
Sets 02:02:59 0° 128° (SE) 2,662 5.2 -7.5°
